North Platte, NE

7:51 AM CDT on July 21, 2017 (GMT -0500)
North Platte Regional-Bird

Weather History for KLBF - October, 2013

Change the Weather History Date:

Thursday, October 3, 2013

  Actual Average Record
Temperature  
Mean Temperature 54 °F 54 °F  
Max Temperature 57 °F 70 °F 91 °F (1967)
Min Temperature 50 °F 39 °F 24 °F (2009)
Degree Days  
Heating Degree Days 11 11  
Month to date heating degree days 18 32  
Since 1 July heating degree days 101 203  
Cooling Degree Days 0 0  
Month to date cooling degree days 0 0  
Year to date cooling degree days 998 765  
Growing Degree Days 4 (Base 50)    
Moisture  
Dew Point 50 °F    
Average Humidity 79    
Maximum Humidity 96    
Minimum Humidity 61    
Precipitation  
Precipitation T in 0.05 in 1.24 in (2016)
Month to date precipitation T 0.17  
Year to date precipitation 19.44 17.80  
Snow  
Snow 0.00 in 0.00 in 0.00 in (2002)
Month to date snowfall 0.0 0.1  
Since 1 July snowfall 0.0 0.3  
Since 1 September snowfall 0.0 0.3  
Snow Depth 0.00 in    
Sea Level Pressure  
Sea Level Pressure 29.79 in    
Wind  
Wind Speed 9 mph (NE)    
Max Wind Speed 18 mph    
Max Gust Speed 23 mph    
Visibility 6 miles    
Events Rain    
T = Trace of Precipitation, MM = Missing Value Source: NWS Daily Summary

Daily Weather History Graph

Daily Weather History Graph

Search for Another Location

Airport or City:

Trip Planner

Search our weather history database for the weather conditions in past years. The results will help you decide how hot, cold, wet, or windy it might be!

Date:

Astronomy

Oct. 03, 2013 Rise Set
Actual Time 7:41 AM CDT 7:20 PM CDT
Civil Twilight 7:14 AM CDT 7:48 PM CDT
Nautical Twilight 6:42 AM CDT 8:20 PM CDT
Astronomical Twilight 6:10 AM CDT 8:52 PM CDT
Moon 6:16 AM CDT (10/3) 6:30 PM CDT (10/3)
Length of Visible Light 12h 33m
Length of Day
11h 39m
Waning Crescent, 2% of the Moon is Illuminated
Oct 3
Waning Crescent
Oct 4
New
Oct 11
First Quarter
Oct 18
Full
Oct 26
Last Quarter

Hourly Weather History & Observations

Time (CDT) Temp. Dew Point Humidity Pressure Visibility Wind Dir Wind Speed Gust Speed Precip Events Conditions
12:53 AM 55.0 °F 44.1 °F 67% 29.79 in 10.0 mi Calm Calm - N/A   Clear
1:53 AM 55.0 °F 43.0 °F 64% 29.78 in 10.0 mi NNE 4.6 mph - N/A   Clear
2:53 AM 54.0 °F 43.0 °F 66% 29.77 in 10.0 mi NE 3.5 mph - N/A   Clear
3:53 AM 52.0 °F 44.1 °F 74% 29.75 in 10.0 mi East 6.9 mph - N/A   Clear
4:28 AM 53.6 °F 44.6 °F 72% 29.81 in 10.0 mi NE 4.6 mph - N/A   Mostly Cloudy
4:53 AM 52.0 °F 45.0 °F 77% 29.74 in 10.0 mi ENE 4.6 mph - N/A   Scattered Clouds
5:34 AM 53.6 °F 48.2 °F 82% 29.79 in 10.0 mi East 10.4 mph - N/A   Mostly Cloudy
5:53 AM 55.0 °F 51.1 °F 86% 29.73 in 10.0 mi East 11.5 mph - N/A   Overcast
6:02 AM 55.4 °F 51.8 °F 88% 29.78 in 10.0 mi East 9.2 mph - N/A   Overcast
6:44 AM 55.4 °F 53.6 °F 94% 29.78 in 10.0 mi East 6.9 mph - N/A   Overcast
6:53 AM 55.0 °F 53.1 °F 93% 29.73 in 9.0 mi East 6.9 mph - N/A   Overcast
7:53 AM 57.0 °F 55.0 °F 93% 29.74 in 5.0 mi ENE 3.5 mph - N/A   Overcast
8:10 AM 57.2 °F 55.4 °F 94% 29.78 in 1.8 mi NE 3.5 mph - N/A   Overcast
8:21 AM 57.2 °F 55.4 °F 94% 29.79 in 1.2 mi Calm Calm - N/A   Overcast
8:49 AM 57.2 °F 55.4 °F 94% 29.79 in 1.5 mi North 3.5 mph - N/A   Overcast
8:53 AM 57.0 °F 55.9 °F 96% 29.76 in 1.5 mi NNE 3.5 mph - N/A   Overcast
9:34 AM 57.2 °F 55.4 °F 94% 29.82 in 2.0 mi North 9.2 mph - 0.00 in Rain Light Rain
9:53 AM 54.0 °F 52.0 °F 93% 29.80 in 3.0 mi North 12.7 mph - 0.00 in Rain Light Rain
10:03 AM 53.6 °F 51.8 °F 94% 29.83 in 2.5 mi North 15.0 mph - 0.00 in Rain Light Rain
10:27 AM 51.8 °F 48.2 °F 88% 29.82 in 3.0 mi North 13.8 mph 20.7 mph 0.00 in Rain Light Rain
10:45 AM 51.8 °F 48.2 °F 88% 29.83 in 2.5 mi NNE 11.5 mph 20.7 mph 0.00 in Rain Light Rain
10:53 AM 51.1 °F 48.9 °F 92% 29.81 in 3.0 mi North 10.4 mph 19.6 mph 0.00 in Rain Light Rain
11:43 AM 51.8 °F 48.2 °F 88% 29.83 in 2.0 mi North 11.5 mph 17.3 mph 0.00 in   Overcast
11:53 AM 51.1 °F 48.9 °F 92% 29.81 in 2.5 mi North 10.4 mph 19.6 mph 0.00 in   Overcast
12:12 PM 51.8 °F 50.0 °F 94% 29.83 in 2.0 mi North 10.4 mph - N/A   Overcast
12:53 PM 51.1 °F 48.9 °F 92% 29.81 in 2.0 mi North 10.4 mph - N/A   Overcast
1:20 PM 51.8 °F 48.2 °F 88% 29.82 in 3.0 mi NNE 15.0 mph 21.9 mph N/A   Overcast
1:30 PM 51.8 °F 48.2 °F 88% 29.82 in 3.0 mi NNE 15.0 mph 23.0 mph N/A   Overcast
1:41 PM 51.8 °F 48.2 °F 88% 29.81 in 2.5 mi NNE 11.5 mph - N/A   Overcast
1:53 PM 52.0 °F 50.0 °F 93% 29.79 in 2.5 mi NNE 12.7 mph - N/A   Overcast
2:09 PM 51.8 °F 48.2 °F 88% 29.81 in 3.0 mi NNE 16.1 mph 19.6 mph N/A   Overcast
2:19 PM 51.8 °F 48.2 °F 88% 29.81 in 2.0 mi NNE 16.1 mph 21.9 mph N/A   Overcast
2:45 PM 51.8 °F 48.2 °F 88% 29.80 in 4.0 mi NNE 15.0 mph 21.9 mph N/A   Overcast
2:53 PM 52.0 °F 50.0 °F 93% 29.78 in 4.0 mi NNE 13.8 mph 20.7 mph N/A   Overcast
3:11 PM 53.6 °F 50.0 °F 88% 29.79 in 10.0 mi NE 11.5 mph - N/A   Overcast
3:36 PM 53.6 °F 51.8 °F 94% 29.79 in 10.0 mi NE 12.7 mph 21.9 mph N/A   Overcast
3:53 PM 54.0 °F 51.1 °F 90% 29.78 in 10.0 mi ENE 11.5 mph - N/A   Overcast
4:53 PM 54.0 °F 52.0 °F 93% 29.78 in 10.0 mi ENE 9.2 mph - N/A   Overcast
5:53 PM 55.0 °F 52.0 °F 89% 29.77 in 9.0 mi ENE 10.4 mph - N/A   Overcast
6:53 PM 55.0 °F 53.1 °F 93% 29.77 in 10.0 mi ENE 6.9 mph - N/A   Overcast
7:30 PM 55.4 °F 53.6 °F 94% 29.80 in 10.0 mi NE 10.4 mph - N/A   Overcast
7:53 PM 55.0 °F 53.1 °F 93% 29.78 in 5.0 mi NE 8.1 mph - N/A   Overcast
8:53 PM 55.0 °F 53.1 °F 93% 29.78 in 3.0 mi NE 6.9 mph - N/A   Overcast
9:02 PM 55.4 °F 53.6 °F 94% 29.81 in 2.5 mi ENE 9.2 mph - N/A   Overcast
9:18 PM 55.4 °F 53.6 °F 94% 29.80 in 3.0 mi ENE 8.1 mph - N/A   Overcast
9:53 PM 55.9 °F 54.0 °F 93% 29.77 in 10.0 mi NE 12.7 mph - N/A   Overcast
11:53 PM 53.1 °F 51.1 °F 93% 29.75 in 4.0 mi NE 13.8 mph - N/A   Overcast